Regional Weather Roundup
Issued by NWS

Home | Current Version | Previous Version | Text Only | Print | Product List | Glossary Off
Versions: 1 2 3 4 5 6 7 8 9 10 11 12 13 14 15 16 17 18 19 20 21 22 23 24 25 26 27 28 29 30 31 32 33 34 35 36 37 38 39 40 41 42 43 44 45 46 47 48 49 50

000
ASUS43 KOAX 221710
RWRNE

WEATHER ROUNDUP FOR NEBRASKA
NATIONAL WEATHER SERVICE OMAHA NE
1200 PM CDT FRI MAY 22 2015

NOTES: SATELLITE DATA IS BEING USED TO AUGMENT CLOUD COVER ABOVE
       12000 FEET.
       "FAIR" INDICATES FEW OR NO CLOUDS BELOW 12,000 FEET WITH NO
       SIGNIFICANT WEATHER AND/OR OBSTRUCTIONS TO VISIBILITY.

  * THESE STATIONS DO NOT REPORT WEATHER SUCH AS RAIN...SNOW OR FOG.

NEZ001>004-019>022-054>056-221800-
NEBRASKA PANHANDLE

CITY           SKY/WX    TMP DP  RH WIND       PRES   REMARKS
SCOTTSBLUFF    LGT RAIN  50  32  50 SE14      30.08S
ALLIANCE       LGT RAIN  48  44  86 SE15      30.10F
CHADRON        CLOUDY    56  43  61 S20       30.10R
KIMBALL          N/A    N/A N/A N/A MISG        N/A
SIDNEY         LGT RAIN  48  45  89 E17       30.08F
$$

NEZ057>060-069>072-079>082-221800-
SOUTHWEST NEBRASKA

CITY           SKY/WX    TMP DP  RH WIND       PRES   REMARKS
NORTH PLATTE   LGT RAIN  47  45  93 E12       30.18S
IMPERIAL       LGT RAIN  49  47  93 SE15      30.11S FOG
LEXINGTON      RAIN      49  47  90 SE8       30.21R
MCCOOK         LGT RAIN  48  46  93 SE16      30.14F FOG
OGALLALA       LGT RAIN  48  46  93 E10       30.13F
$$

NEZ005>010-023>029-035>040-094-221800-
NORTH CENTRAL NEBRASKA

CITY           SKY/WX    TMP DP  RH WIND       PRES   REMARKS
VALENTINE      CLOUDY    60  40  47 S20       30.17R
AINSWORTH      CLOUDY    60  41  51 S15G21    30.19R
BROKEN BOW     LGT RAIN  51  45  79 S13G24    30.21S
O`NEILL        CLOUDY    64  43  46 S13       30.22R
ORD            CLOUDY    55  45  68 SE6       30.21S
THEDFORD       CLOUDY    54  45  70 S20       30.19S
$$

NEZ041-046>049-061>064-073>077-083>087-221800-
SOUTH CENTRAL NEBRASKA

CITY           SKY/WX    TMP DP  RH WIND       PRES   REMARKS
GRAND ISLAND   CLOUDY    55  45  68 SE7       30.25R
AURORA         CLOUDY    56  46  68 SE7       30.25R
HASTINGS       LGT RAIN  52  47  83 S5        30.23R
HEBRON         CLOUDY    58  45  63 SE5       30.24R
HOLDREGE       LGT RAIN  48  44  87 SE15      30.21S
KEARNEY *      CLOUDY    48  45  87 S10       30.24R
YORK           CLOUDY    55  46  71 CALM      30.25R
$$

NEZ011>018-030>034-042>045-221800-
NORTHEAST NEBRASKA

CITY           SKY/WX    TMP DP  RH WIND       PRES   REMARKS
NORFOLK        CLOUDY    66  37  34 S10       30.22S
ALBION         CLOUDY    60  40  47 S10       30.24R
BLAIR          CLOUDY    66  45  46 E3        30.23F
COLUMBUS *     CLOUDY    63  43  48 S7        30.26S
FREMONT        CLOUDY    67  39  36 E5        30.24F
TEKAMAH        CLOUDY    71  40  32 E3        30.23R
WAYNE          CLOUDY    69  40  35 S6        30.23R
$$

NEZ050>053-065>068-078-088>093-221800-
SOUTHEAST NEBRASKA

CITY           SKY/WX    TMP DP  RH WIND       PRES   REMARKS
LINCOLN        CLOUDY    60  48  64 SE6       30.25S
OMAHA EPPLEY   CLOUDY    67  44  43 SE5       30.23F
BEATRICE       CLOUDY    59  47  65 S6        30.24F
FALLS CITY     CLOUDY    62  48  60 S6        30.25F
NEBRASKA CITY  CLOUDY    62  45  54 SW8       30.25S
PLATTSMOUTH    CLOUDY    64  41  42 E3        30.24S
$$

NEZ044-045-051>053-067-221800-
OMAHA AREA

CITY           SKY/WX    TMP DP  RH WIND       PRES   REMARKS
OMAHA EPPLEY   CLOUDY    67  44  43 SE5       30.23F
BLAIR          CLOUDY    66  45  46 E3        30.23F
FREMONT        CLOUDY    67  39  36 E5        30.24F
MILLARD        CLOUDY    67  46  46 SE3       30.23F
OFFUTT AFB     CLOUDY    66  48  51 VRB2      30.23S
PLATTSMOUTH    CLOUDY    64  41  42 E3        30.24S
WAHOO          FAIR      65  41  42 SE6       30.24R
$$


USA.gov is the U.S. government's official web portal to all federal, state and local government web resources and services.